User: anonymous
Location: Thompson
(55.7500°N, 97.8670°W)
Time: 08:57:39
(UTC-05:00)
Language:

Cosmos 1833 Rocket - Orbit

View from above orbital plane
View from above orbital plane
View from above satellite
View from above satellite

Ground track
Ground track

The orbit data is extracted from the following two-line orbital elements,

1 17590U 87027B   14112.09775106  .00000225  00000-0  13654-3 0  6617
2 17590 071.0054 055.8117 0007277 265.5705 094.4587 14.16633272400951
Epoch (UTC): 22 April 2014 02:20:45
Eccentricity: 0.0007277
inclination: 71.0054°
perigee height: 831 km
apogee height: 842 km
right ascension of ascending node: 55.8117°
argument of perigee: 265.5705°
revolutions per day: 14.16633272
mean anomaly at epoch: 94.4587°
orbit number at epoch: 40095

The dashed part of the orbit path shows where the satellite is in the earth's shadow,  

DLR